This demonstration page uses our WeatherBlox Daily Observations layout. Learn more.

Left ArrowRight Arrow

39.01783, -85.05884

Hourly Observations for November 4, 2020

Temp ( °F °C ) Dew Point ( °F °C ) Humidity (%) Winds ( mph kmh ) Pressure ( in mb ) Visibility ( mi km ) Precip ( " mm )
12:52 am 00:52 Clear 50 10 34 1.1 54 54 SSW 9 15 30.24 1024 10 16.0934 0 0
1:52 am 01:52 Clear 48 8.9 34 1.1 58 58 SSW 8 13 30.25 1024 10 16.0934 0 0
2:52 am 02:52 Clear 47 8.3 34 1.1 61 61 SSW 7 11 30.26 1025 10 16.0934 0 0
3:52 am 03:52 Clear 44 6.7 34 1.1 68 68 S 7 11 30.25 1025 10 16.0934 0 0
4:52 am 04:52 Clear 43 6.1 34 1.1 71 71 S 8 13 30.27 1025 10 16.0934 0 0
5:52 am 05:52 Clear 45 7.2 34 1.1 66 66 S 10 17 30.28 1025 10 16.0934 0 0
6:52 am 06:52 Clear 41 5 33 0.6 73 73 S 9 15 30.29 1026 10 16.0934 0 0
7:52 am 07:52 Sunny 45 7.2 35 1.7 68 68 S 9 15 30.31 1026 8 12.87472 0 0
8:52 am 08:52 Sunny 50 10 36 2.2 59 59 SSW 10 17 30.32 1027 10 16.0934 0 0
9:52 am 09:52 Sunny 57 13.9 39 3.9 51 51 S 10 17 30.32 1027 10 16.0934 0 0
10:52 am 10:52 Sunny 61 16.1 40 4.4 46 46 S 14 22 30.32 1027 10 16.0934 0 0
11:52 am 11:52 Sunny 66 18.9 41 5 40 40 S 13 20 30.31 1026 10 16.0934 0 0
12:52 pm 12:52 Mostly Sunny 68 20 38 3.3 33 33 SW 14 22 30.28 1026 10 16.0934 0 0
1:52 pm 13:52 Mostly Sunny 69 20.6 40 4.4 35 35 SW 14 22 30.27 1025 10 16.0934 0 0
2:52 pm 14:52 Mostly Sunny 70 21.1 39 3.9 32 32 SSW 14 22 30.25 1024 10 16.0934 0 0
3:52 pm 15:52 Mostly Sunny 70 21.1 39 3.9 32 32 SSW 10 17 30.26 1025 10 16.0934 0 0
4:52 pm 16:52 Mostly Sunny 68 20 39 3.9 35 35 SSW 9 15 30.26 1025 10 16.0934 0 0
5:52 pm 17:52 Mostly Clear 60 15.6 39 3.9 46 46 S 8 13 30.26 1025 10 16.0934 0 0
6:52 pm 18:52 Partly Cloudy 58 14.4 39 3.9 50 50 S 7 11 30.27 1025 10 16.0934 0 0
7:52 pm 19:52 Partly Cloudy 57 13.9 40 4.4 53 53 S 7 11 30.28 1026 10 16.0934 0 0
8:52 pm 20:52 Partly Cloudy 56 13.3 40 4.4 55 55 S 8 13 30.29 1026 10 16.0934 0 0
9:52 pm 21:52 Mostly Cloudy 57 13.9 40 4.4 53 53 SSW 8 13 30.28 1026 10 16.0934 0 0
10:52 pm 22:52 Partly Cloudy 56 13.3 39 3.9 53 53 SSW 9 15 30.29 1026 10 16.0934 0 0
11:52 pm 23:52 Mostly Cloudy 54 12.2 39 3.9 57 57 SSW 9 15 30.28 1026 10 16.0934 0 0

Powered by AerisWeather